x

Virginia Beach 64 Nm East Of Virginia Beach, Va (44014) Wave Buoy

7:50 - Mon 21st Apr 2014 All times are EDT. -4 hours from GMT.

  • Sig Wave height 12.1ft
  • Swell Direction
  • Peak Period 10s
  • Average Period 7s
  • Wind
    22mph, 29mph gusts
  • Sea Temp 48°f
  • Luft Temp 49°f
  • Sea Pressure 1017.3mb
  • Virginia Beach 64 Nm East Of Virginia Beach, Va
  • Virginia Beach 64 Nm East Of Virginia Beach, Va

More Historic Weather Station data

Upgrade to MSW Pro to gain access to the past 30 days of data for over 8000 Wavebouys and Weather Stations around the globe.

Join Pro

Comparision Forecast

View Surf forecast
   
Mo 04/21 7:50 12ft 10s 7s 22 29 mph 1017.3mb 48f 49f
6:50 11ft 10s 7s 22 27 mph 1017mb 48f 50f
5:50 11.5ft 10s 7s 22 25 mph 1016.6mb 48f 50f
4:50 11ft 11s 7s 25 29 mph 1016.6mb 48f 50f
3:50 12.5ft 11s 7s 22 27 mph 1017.1mb 48f 51f
2:50 12ft 11s 7s 22 29 mph 1017.4mb 48f 51f
1:50 13ft 11s 7s 25 29 mph 1018mb 48f 51f
12:50 12.5ft 11s 7s 25 31 mph 1019mb 48f 50f
So 04/20 11:50 12.5ft 10s 7s 27 31 mph 1019.4mb 48f 50f
10:50 13ft 11s 7s 27 31 mph 1019.6mb 48f 50f
9:50 13ft 11s 7s 25 31 mph 1020.3mb 48f 49f
8:50 14ft 11s 7s 27 34 mph 1020.7mb 48f 49f
6:50 13.5ft 12s 8s 27 31 mph 1021.2mb 49f 49f
5:50 15ft 11s 8s 29 36 mph 1021.6mb 49f 49f
4:50 14.5ft 11s 7s 27 34 mph 1021.7mb 49f 50f
3:50 14.5ft 11s 8s 22 27 mph 1022.1mb 49f 50f
2:50 13.5ft 11s 7s 27 31 mph 1022.1mb 49f 53f
1:50 13.5ft 10s 7s 27 31 mph 1021.9mb 49f 53f
12:50 13ft 10s 7s 25 29 mph 1021.9mb 49f 54f
11:50 13ft 10s 7s 27 29 mph 1022mb 49f 56f
10:50 11ft 9s 7s 16 20 mph 1022.2mb 49f 53f
9:50 10.5ft 9s 6s 20 25 mph 1021.6mb 49f 57f
8:50 10ft 9s 6s 22 25 mph 1020.9mb 48f 58f
7:50 8.5ft 8s 6s 20 25 mph 1020.8mb 48f 55f
6:50 9ft 8s 6s 18 22 mph 1020.4mb 48f 52f
5:50 8ft 8s 6s 22 25 mph 1020.1mb 48f 52f
4:50 8ft 8s 6s 25 29 mph 1020mb 48f 52f
3:50 7.5ft 8s 6s 25 29 mph 1020.4mb 48f 52f
2:50 9ft 8s 6s 22 27 mph 1020.7mb 48f 52f
1:50 8ft 8s 6s 22 27 mph 1020.8mb 49f 52f
12:50 7ft 10s 6s 16 18 mph 1021.6mb 49f 52f
Sa 04/19 11:50 7ft 7s 6s 18 22 mph 1021.1mb 49f 52f
10:50 6.5ft 9s 5s 20 22 mph 1021.5mb 49f 52f
9:50 6ft 8s 5s 20 25 mph 1021.2mb 49f 51f
8:50 6ft 11s 5s 20 22 mph 1021.2mb 48f 51f
7:50 6ft 8s 6s 20 22 mph 1021.7mb 48f 50f
6:50 6ft 11s 5s 18 20 mph 1021.6mb 48f 51f
5:50 6ft 11s 5s 18 20 mph 1021mb 48f 50f
4:50 6.5ft 11s 6s 20 22 mph 1020.8mb 48f 50f
3:50 6ft 9s 5s 20 22 mph 1021.3mb 48f 50f
2:50 6.5ft 11s 6s 20 25 mph 1021.7mb 48f 50f
1:50 6ft 10s 5s 20 22 mph 1022.3mb 48f 53f
12:50 7ft 10s 6s 18 20 mph 1023mb 49f 51f
11:50 7ft 11s 6s 16 18 mph 1022.9mb 48f 52f
10:50 7ft 11s 6s 18 22 mph 1022.9mb 48f 51f
9:50 7ft 11s 6s 20 22 mph 1022.9mb 48f 50f
8:50 6.5ft 10s 5s 22 27 mph 1022.7mb 48f 48f
7:50 6.5ft 9s 6s 22 27 mph 1022.6mb 48f 48f
6:50 6.5ft 11s 6s 22 27 mph 1022.1mb 48f 48f
5:50 6ft 11s 6s 18 22 mph 1022.2mb 48f 48f
4:50 6ft 11s 6s 16 18 mph 1021.8mb 49f 50f
3:50 6.5ft 9s 6s 18 22 mph 1021.7mb 49f 49f
2:50 6ft 11s 6s 16 18 mph 1022.1mb 49f 48f
1:50 6ft 12s 6s 16 18 mph 1022.8mb 49f 49f
12:50 7ft 9s 6s 11 13 mph 1023.9mb 49f 52f
Fr 04/18 11:50 6.5ft 10s 6s 13 16 mph 1024.5mb 49f 51f
10:50 6.5ft 9s 6s 18 20 mph 1024.2mb 49f 49f
9:50 7ft 9s 6s 16 20 mph 1025.3mb 49f 47f
8:50 7ft 9s 6s 20 25 mph 1025.3mb 49f 47f
7:50 7ft 10s 6s 18 20 mph 1025.1mb 49f 47f
6:50 7ft 9s 6s 20 22 mph 1024.9mb 49f 47f
5:50 7ft 10s 6s 20 25 mph 1025.5mb 49f 47f
4:50 8ft 9s 6s 18 20 mph 1026mb 49f 47f
3:50 8ft 10s 6s 18 22 mph 1027.1mb 49f 47f
2:50 8ft 11s 6s 18 22 mph 1027.8mb 50f 48f
1:50 9ft 10s 6s 22 25 mph 1028.2mb 49f 47f
12:50 8ft 9s 6s 22 25 mph 1028.7mb 49f 47f
11:50 7.5ft 10s 6s 18 22 mph 1028.8mb 49f 49f
10:50 8ft 12s 6s 20 22 mph 1028.6mb 49f 49f
9:50 8ft 9s 6s 22 25 mph 1028.8mb 49f 49f
8:50 9.5ft 9s 7s 22 25 mph 1028.8mb 49f 47f
7:50 9.5ft 10s 7s 22 25 mph 1029.5mb 49f 47f
6:50 10ft 10s 7s 20 25 mph 1029.3mb 49f 47f
5:50 10ft 10s 7s 20 25 mph 1028.6mb 49f 48f
4:50 10.5ft 9s 7s 20 25 mph 1027.7mb 49f 49f
3:50 10ft 11s 7s 20 25 mph 1028.1mb 49f 49f
2:50 9.5ft 9s 7s 22 25 mph 1028.7mb 51f 49f
1:50 10ft 9s 7s 22 25 mph 1029.9mb 53f 50f
12:50 9.5ft 11s 6s 22 27 mph 1030.8mb 54f 51f
Do 04/17 11:50 9ft 11s 6s 22 27 mph 1031.5mb 54f 51f
10:50 9ft 8s 6s 25 29 mph 1030.7mb 54f 52f
9:50 9ft 9s 6s 27 31 mph 1030.7mb 54f 52f
8:50 9ft 11s 6s 27 31 mph 1031mb 54f 51f
6:50 9ft 10s 6s 25 29 mph 1031.7mb 53f 51f
5:50 9ft 8s 6s 27 34 mph 1031.9mb 51f 50f
4:50 10ft 11s 6s 27 34 mph 1031.8mb 51f 50f
3:50 10ft 10s 6s 29 34 mph 1031.8mb 51f 50f
2:50 11ft 10s 6s 29 34 mph 1032.2mb 53f 51f
1:50 9.5ft 11s 6s 29 38 mph 1032.7mb 53f 51f
12:50 10ft 10s 6s 29 36 mph 1032.7mb 52f 50f